Weather History for St. John's, NL

Change the Weather History Date:

Sunday, October 7, 2012

  Actual Average Record
Temperature  
Mean Temperature 51 °F -  
Max Temperature 61 °F 49 °F 66 °F (2000)
Min Temperature 41 °F 37 °F 32 °F (2006)
Degree Days  
Heating Degree Days 14    
Growing Degree Days 1 (Base 50)    
Moisture  
Dew Point 50 °F    
Average Humidity 89    
Maximum Humidity 100    
Minimum Humidity 67    
Precipitation  
Precipitation 0.00 in 0.20 in - ()
Sea Level Pressure  
Sea Level Pressure 30.06 in    
Wind  
Wind Speed 9 mph ()    
Max Wind Speed 18 mph    
Max Gust Speed 26 mph    
Visibility 13.6 miles    
Events Fog    
Averages and records for this station are not official NWS values.
T = Trace of Precipitation, MM = Missing Value Source: Averaged Metar Reports

Daily Weather History Graph

Daily Weather History Graph

Search for Another Location

Airport:

Trip Planner

Search our weather history database for the weather conditions in past years. The results will help you decide how hot, cold, wet, or windy it might be!

Date:

Astronomy

Oct. 07, 2012 Rise Set
Actual Time 7:08 AM NDT 6:27 PM NDT
Civil Twilight 6:38 AM NDT 6:58 PM NDT
Nautical Twilight 6:02 AM NDT 7:33 PM NDT
Astronomical Twilight 5:26 AM NDT 8:09 PM NDT
Moon 11:16 PM NDT (10/7) 1:59 PM NDT (10/7)
Length of Visible Light 12h 20m
Length of Day
11h 18m
Waning Gibbous, 57% of the Moon is Illuminated
Oct 7
Waning Gibbous
Oct 8
Last Quarter
Oct 15
New
Oct 22
First Quarter
Oct 29
Full

Hourly Weather History & Observations

Time (NDT) Temp. Windchill Dew Point Humidity Pressure Visibility Wind Dir Wind Speed Gust Speed Precip Events Conditions
12:30 AM 46.4 °F 42.4 °F 46.4 °F 100% 30.04 in 0.5 mi South 8.1 mph - N/A Fog Light Drizzle
1:11 AM 44.6 °F 42.2 °F 44.6 °F 100% 30.04 in 0.5 mi South 4.6 mph - N/A Fog Light Drizzle
1:30 AM 42.8 °F 39.3 °F 42.8 °F 100% 30.05 in 15.0 mi WSW 5.8 mph - N/A   Clear
2:14 AM 41.0 °F 36.4 °F 41.0 °F 100% 30.03 in 0.5 mi South 6.9 mph - N/A Fog Fog
2:30 AM 42.8 °F 41.1 °F 42.8 °F 100% 30.04 in 15.0 mi SW 3.5 mph - N/A   Clear
3:30 AM 45 °F - 44 °F 94% 30.04 in 15 mi SW 8.1 mph - -   Partly Cloudy
3:30 AM 44.6 °F 40.2 °F 44.6 °F 100% 30.04 in 15.0 mi SW 8.1 mph - N/A   Clear
4:30 AM 46.4 °F 41.1 °F 44.6 °F 93% 30.05 in 15.0 mi WSW 11.5 mph - N/A   Clear
5:30 AM 44.6 °F 39.2 °F 42.8 °F 93% 30.05 in 15.0 mi SW 10.4 mph - N/A   Clear
6:30 AM 44.6 °F 39.2 °F 42.8 °F 93% 30.06 in 15.0 mi SW 10.4 mph - N/A   Partly Cloudy
7:30 AM 46.4 °F 41.9 °F 44.6 °F 93% 30.06 in 15.0 mi SSW 9.2 mph - N/A   Mostly Cloudy
8:30 AM 48.2 °F - 46.4 °F 93% 30.06 in 15.0 mi WSW 11.5 mph - N/A   Mostly Cloudy
9:30 AM 53 °F - 49 °F 84% 30.07 in 15 mi SW 6.9 mph - -   Overcast
9:30 AM 51.8 °F - 50.0 °F 94% 30.07 in 15.0 mi SW 6.9 mph - N/A   Overcast
10:30 AM 55.4 °F - 48.2 °F 77% 30.06 in 15.0 mi SW 11.5 mph - N/A   Mostly Cloudy
11:30 AM 59.0 °F - 50.0 °F 72% 30.06 in 25.0 mi SW 11.5 mph 19.6 mph N/A   Overcast
12:30 PM 59.0 °F - 50.0 °F 72% 30.05 in 15.0 mi SW 16.1 mph - N/A   Overcast
1:30 PM 60.8 °F - 51.8 °F 72% 30.03 in 15.0 mi SW 16.1 mph 23.0 mph N/A   Scattered Clouds
2:30 PM 59.0 °F - 48.2 °F 67% 30.04 in 15.0 mi SW 18.4 mph 26.5 mph N/A   Scattered Clouds
3:30 PM 60 °F - 52 °F 67% 30.04 in 15 mi SSW 15.0 mph - -   Mostly Cloudy
3:30 PM 59.0 °F - 51.8 °F 77% 30.04 in 15.0 mi SSW 13.8 mph 23.0 mph N/A   Mostly Cloudy
4:30 PM 60.8 °F - 51.8 °F 72% 30.04 in 15.0 mi SW 13.8 mph 24.2 mph N/A   Mostly Cloudy
5:30 PM 59.0 °F - 53.6 °F 82% 30.06 in 15.0 mi WSW 12.7 mph 19.6 mph N/A   Mostly Cloudy
6:30 PM 57.2 °F - 53.6 °F 88% 30.07 in 15.0 mi SSW 8.1 mph - N/A   Mostly Cloudy
7:30 PM 57.2 °F - 53.6 °F 88% 30.09 in 15.0 mi SSW 12.7 mph - N/A   Mostly Cloudy
8:19 PM 55.4 °F - 51.8 °F 88% 30.08 in 15.0 mi South 13.8 mph 19.6 mph N/A   Mostly Cloudy
8:30 PM 55.4 °F - 53.6 °F 94% 30.09 in 15.0 mi South 9.2 mph - N/A   Mostly Cloudy
9:30 PM 57 °F - 55 °F 92% 30.09 in 15 mi SSW 12.7 mph - -   Overcast
9:30 PM 57.2 °F - 55.4 °F 94% 30.09 in 15.0 mi SSW 12.7 mph - N/A   Overcast
10:30 PM 57.2 °F - 55.4 °F 94% 30.11 in 15.0 mi SSW 10.4 mph 17.3 mph N/A   Overcast
10:51 PM 59.0 °F - 57.2 °F 94% 30.10 in 15.0 mi SSW 12.7 mph 20.7 mph N/A   Mostly Cloudy
11:22 PM 57.2 °F - 57.2 °F 100% 30.11 in 15.0 mi SW 12.7 mph - N/A   Scattered Clouds
11:30 PM 57.2 °F - 57.2 °F 100% 30.11 in 15.0 mi SW 13.8 mph - N/A   Scattered Clouds